| time (UTC) | temp F | wind direction | speed MPH | gust MPH | rain 1hr in | rain 24hr in | rain mn in | humidity % | barometer mb |
| 20260506004137 | 56 | 269 | 4.0 | 3.0 | 0.00 | 0.08 | 0.08 | 37 | 1008.1 |
| 20260506003636 | 56 | 271 | 1.0 | 3.0 | 0.00 | 0.08 | 0.08 | 37 | 1008.2 |
| 20260506003137 | 56 | 285 | 3.0 | 3.0 | 0.00 | 0.08 | 0.08 | 37 | 1008.1 |
| 20260506002637 | 56 | 290 | 2.0 | 3.0 | 0.00 | 0.08 | 0.08 | 37 | 1008.0 |
| 20260506002137 | 56 | 297 | 3.0 | 3.0 | 0.00 | 0.08 | 0.08 | 37 | 1008.1 |
| 20260506001636 | 56 | 283 | 3.0 | 3.0 | 0.00 | 0.08 | 0.08 | 37 | 1008.2 |
| 20260506001137 | 56 | 305 | 2.0 | 3.0 | 0.00 | 0.08 | 0.08 | 38 | 1008.1 |
| 20260506000636 | 56 | 347 | 2.0 | 3.0 | 0.00 | 0.08 | 0.08 | 37 | 1008.0 |
| 20260506000137 | 56 | 326 | 4.0 | 3.0 | 0.00 | 0.08 | 0.08 | 37 | 1008.0 |
| 20260505235636 | 57 | 347 | 2.0 | 3.0 | 0.00 | 0.34 | 0.08 | 37 | 1008.1 |
| 20260505235137 | 57 | 1 | 4.0 | 3.0 | 0.00 | 0.34 | 0.08 | 36 | 1008.1 |
| 20260505234637 | 57 | 339 | 1.0 | 4.0 | 0.00 | 0.34 | 0.08 | 36 | 1008.1 |
| 20260505234137 | 57 | 273 | 4.0 | 4.0 | 0.00 | 0.34 | 0.08 | 36 | 1008.2 |
| 20260505233636 | 57 | 305 | 3.0 | 4.0 | 0.00 | 0.34 | 0.08 | 36 | 1008.2 |
| 20260505233137 | 57 | 271 | 4.0 | 4.0 | 0.00 | 0.34 | 0.08 | 35 | 1008.2 |
| 20260505232637 | 57 | 271 | 4.0 | 4.0 | 0.00 | 0.34 | 0.08 | 35 | 1008.2 |
| 20260505232137 | 57 | 292 | 4.0 | 4.0 | 0.00 | 0.34 | 0.08 | 35 | 1008.2 |
| 20260505231637 | 57 | 334 | 5.0 | 4.0 | 0.00 | 0.34 | 0.08 | 35 | 1008.2 |
| 20260505231137 | 58 | 308 | 8.0 | 4.0 | 0.00 | 0.34 | 0.08 | 34 | 1008.2 |
| 20260505230636 | 58 | 255 | 3.0 | 4.0 | 0.00 | 0.34 | 0.08 | 34 | 1008.2 |
| 20260505230137 | 58 | 319 | 8.0 | 3.0 | 0.00 | 0.34 | 0.08 | 35 | 1008.3 |
| 20260505225636 | 58 | 287 | 4.0 | 3.0 | 0.00 | 0.34 | 0.08 | 34 | 1008.3 |
| 20260505225137 | 58 | 346 | 3.0 | 4.0 | 0.00 | 0.34 | 0.08 | 34 | 1008.3 |
| 20260505224636 | 58 | 277 | 3.0 | 3.0 | 0.00 | 0.34 | 0.08 | 34 | 1008.4 |
| 20260505224137 | 58 | 293 | 3.0 | 4.0 | 0.00 | 0.34 | 0.08 | 34 | 1008.3 |
| 20260505223636 | 58 | 292 | 3.0 | 3.0 | 0.00 | 0.34 | 0.08 | 33 | 1008.3 |
| 20260505223137 | 58 | 231 | 2.0 | 2.0 | 0.00 | 0.34 | 0.08 | 35 | 1008.3 |
| 20260505222636 | 58 | 0 | 0.0 | 3.0 | 0.00 | 0.34 | 0.08 | 35 | 1008.2 |
| 20260505222137 | 58 | 0 | 0.0 | 4.0 | 0.00 | 0.34 | 0.08 | 34 | 1008.3 |
| 20260505221636 | 58 | 279 | 3.0 | 4.0 | 0.00 | 0.34 | 0.08 | 34 | 1008.3 |
| 20260505221137 | 58 | 302 | 5.0 | 4.0 | 0.00 | 0.34 | 0.08 | 34 | 1008.3 |
| 20260505220637 | 58 | 246 | 1.0 | 4.0 | 0.00 | 0.34 | 0.08 | 34 | 1008.4 |
| 20260505220137 | 58 | 307 | 2.0 | 3.0 | 0.00 | 0.34 | 0.08 | 33 | 1008.5 |
| 20260505215636 | 58 | 296 | 4.0 | 3.0 | 0.00 | 0.34 | 0.08 | 34 | 1008.5 |
| 20260505215137 | 58 | 0 | 0.0 | 3.0 | 0.00 | 0.34 | 0.08 | 32 | 1008.4 |
| 20260505214636 | 59 | 317 | 3.0 | 4.0 | 0.00 | 0.34 | 0.08 | 32 | 1008.3 |
| 20260505214137 | 59 | 278 | 1.0 | 4.0 | 0.00 | 0.34 | 0.08 | 32 | 1008.4 |
| 20260505213637 | 59 | 261 | 4.0 | 3.0 | 0.00 | 0.34 | 0.08 | 32 | 1008.4 |
| 20260505213138 | 59 | 239 | 7.0 | 3.0 | 0.00 | 0.34 | 0.08 | 33 | 1008.4 |
| 20260505212636 | 59 | 268 | 2.0 | 3.0 | 0.00 | 0.34 | 0.08 | 33 | 1008.4 |
| 20260505212137 | 59 | 247 | 4.0 | 4.0 | 0.00 | 0.34 | 0.08 | 32 | 1008.4 |
| 20260505211637 | 59 | 309 | 2.0 | 3.0 | 0.00 | 0.34 | 0.08 | 32 | 1008.4 |
| 20260505211137 | 59 | 210 | 5.0 | 3.0 | 0.00 | 0.34 | 0.08 | 32 | 1008.3 |
| 20260505210636 | 59 | 251 | 6.0 | 3.0 | 0.00 | 0.34 | 0.08 | 32 | 1008.4 |
| 20260505210137 | 59 | 245 | 1.0 | 3.0 | 0.00 | 0.34 | 0.08 | 33 | 1008.3 |
| 20260505205636 | 59 | 220 | 2.0 | 2.0 | 0.00 | 0.34 | 0.08 | 34 | 1008.4 |
| 20260505205137 | 58 | 300 | 1.0 | 2.0 | 0.00 | 0.34 | 0.08 | 34 | 1008.4 |
| 20260505204636 | 58 | 269 | 2.0 | 3.0 | 0.00 | 0.34 | 0.08 | 34 | 1008.5 |
| 20260505204137 | 58 | 277 | 3.0 | 3.0 | 0.00 | 0.34 | 0.08 | 33 | 1008.4 |
| 20260505203636 | 58 | 256 | 2.0 | 3.0 | 0.00 | 0.34 | 0.08 | 33 | 1008.6 |
| 20260505203137 | 58 | 319 | 5.0 | 3.0 | 0.00 | 0.34 | 0.08 | 34 | 1008.8 |
| 20260505202636 | 58 | 304 | 3.0 | 3.0 | 0.00 | 0.34 | 0.08 | 34 | 1008.7 |
| 20260505202137 | 58 | 330 | 4.0 | 3.0 | 0.00 | 0.34 | 0.08 | 33 | 1008.7 |
| 20260505201637 | 58 | 258 | 2.0 | 2.0 | 0.00 | 0.34 | 0.08 | 33 | 1008.7 |
| 20260505201137 | 58 | 236 | 1.0 | 3.0 | 0.00 | 0.34 | 0.08 | 33 | 1008.8 |
| 20260505200637 | 58 | 263 | 2.0 | 4.0 | 0.00 | 0.34 | 0.08 | 33 | 1008.8 |
| 20260505200137 | 58 | 311 | 4.0 | 4.0 | 0.00 | 0.34 | 0.08 | 32 | 1008.7 |
| 20260505195636 | 59 | 229 | 2.0 | 4.0 | 0.00 | 0.34 | 0.08 | 32 | 1008.6 |
| 20260505195137 | 59 | 235 | 5.0 | 4.0 | 0.00 | 0.34 | 0.08 | 31 | 1008.6 |
| 20260505194636 | 60 | 287 | 6.0 | 3.0 | 0.00 | 0.34 | 0.08 | 32 | 1008.7 |
| 20260505194137 | 60 | 250 | 3.0 | 3.0 | 0.00 | 0.34 | 0.08 | 34 | 1008.7 |
| 20260505193636 | 60 | 276 | 2.0 | 3.0 | 0.00 | 0.34 | 0.08 | 35 | 1008.9 |
| 20260505193137 | 60 | 259 | 3.0 | 2.0 | 0.00 | 0.34 | 0.08 | 36 | 1008.8 |
| 20260505192637 | 59 | 217 | 1.0 | 3.0 | 0.00 | 0.34 | 0.08 | 36 | 1008.9 |
| 20260505192137 | 59 | 223 | 5.0 | 3.0 | 0.00 | 0.34 | 0.08 | 37 | 1008.9 |
| 20260505191636 | 59 | 276 | 2.0 | 3.0 | 0.00 | 0.34 | 0.08 | 36 | 1008.9 |
| 20260505191137 | 59 | 246 | 2.0 | 3.0 | 0.00 | 0.34 | 0.08 | 36 | 1009.0 |
| 20260505190636 | 59 | 222 | 6.0 | 3.0 | 0.00 | 0.34 | 0.08 | 36 | 1008.9 |
| 20260505190137 | 59 | 184 | 3.0 | 4.0 | 0.00 | 0.34 | 0.08 | 35 | 1008.8 |
| 20260505185636 | 59 | 301 | 6.0 | 4.0 | 0.00 | 0.34 | 0.08 | 35 | 1009.0 |
| 20260505185136 | 60 | 331 | 2.0 | 4.0 | 0.00 | 0.34 | 0.08 | 35 | 1009.0 |
| 20260505184636 | 60 | 283 | 5.0 | 4.0 | 0.00 | 0.34 | 0.08 | 34 | 1009.0 |
| 20260505184136 | 60 | 240 | 4.0 | 3.0 | 0.00 | 0.34 | 0.08 | 34 | 1009.1 |
| 20260505183636 | 60 | 271 | 4.0 | 3.0 | 0.00 | 0.34 | 0.08 | 35 | 1009.1 |
| 20260505183136 | 60 | 295 | 1.0 | 3.0 | 0.00 | 0.34 | 0.08 | 33 | 1009.1 |
| 20260505182636 | 60 | 301 | 3.0 | 3.0 | 0.00 | 0.34 | 0.08 | 32 | 1008.9 |
| 20260505182137 | 60 | 257 | 3.0 | 3.0 | 0.00 | 0.34 | 0.08 | 34 | 1009.0 |
| 20260505181636 | 60 | 276 | 2.0 | 4.0 | 0.00 | 0.34 | 0.08 | 32 | 1008.9 |
| 20260505181136 | 60 | 274 | 4.0 | 4.0 | 0.00 | 0.34 | 0.08 | 33 | 1008.8 |
| 20260505180636 | 60 | 284 | 3.0 | 4.0 | 0.00 | 0.34 | 0.08 | 33 | 1008.8 |
| 20260505180137 | 60 | 299 | 3.0 | 4.0 | 0.00 | 0.34 | 0.08 | 32 | 1008.8 |
| 20260505175636 | 61 | 297 | 2.0 | 4.0 | 0.00 | 0.34 | 0.08 | 32 | 1008.7 |
| 20260505175137 | 62 | 283 | 3.0 | 4.0 | 0.00 | 0.34 | 0.08 | 33 | 1008.6 |
| 20260505174636 | 62 | 258 | 3.0 | 4.0 | 0.00 | 0.34 | 0.08 | 33 | 1008.5 |
| 20260505174137 | 62 | 208 | 5.0 | 3.0 | 0.00 | 0.34 | 0.08 | 33 | 1008.7 |
| 20260505173636 | 62 | 240 | 4.0 | 2.0 | 0.00 | 0.34 | 0.08 | 36 | 1008.5 |
| 20260505173136 | 61 | 0 | 0.0 | 3.0 | 0.00 | 0.34 | 0.08 | 37 | 1008.7 |
| 20260505172636 | 61 | 173 | 2.0 | 3.0 | 0.00 | 0.34 | 0.08 | 38 | 1008.6 |
| 20260505172137 | 61 | 290 | 2.0 | 3.0 | 0.00 | 0.34 | 0.08 | 36 | 1008.6 |
| 20260505171637 | 62 | 316 | 1.0 | 3.0 | 0.00 | 0.34 | 0.08 | 38 | 1008.5 |
| 20260505171136 | 62 | 238 | 3.0 | 4.0 | 0.00 | 0.34 | 0.08 | 37 | 1008.6 |
| 20260505170636 | 62 | 252 | 3.0 | 4.0 | 0.00 | 0.34 | 0.08 | 36 | 1008.5 |
| 20260505170136 | 61 | 258 | 3.0 | 4.0 | 0.00 | 0.34 | 0.08 | 37 | 1008.5 |
| 20260505165636 | 61 | 288 | 7.0 | 3.0 | 0.00 | 0.34 | 0.08 | 37 | 1008.4 |
| 20260505165137 | 60 | 219 | 2.0 | 3.0 | 0.00 | 0.34 | 0.08 | 39 | 1008.4 |
| 20260505164636 | 60 | 311 | 1.0 | 3.0 | 0.00 | 0.34 | 0.08 | 39 | 1008.7 |
| 20260505164137 | 60 | 247 | 2.0 | 3.0 | 0.00 | 0.34 | 0.08 | 39 | 1008.8 |
| 20260505163636 | 59 | 239 | 5.0 | 3.0 | 0.00 | 0.34 | 0.08 | 39 | 1008.7 |
| 20260505163136 | 59 | 284 | 3.0 | 2.0 | 0.00 | 0.34 | 0.08 | 41 | 1008.5 |
| 20260505162637 | 59 | 246 | 3.0 | 2.0 | 0.00 | 0.34 | 0.08 | 41 | 1008.5 |
| 20260505162136 | 58 | 288 | 2.0 | 3.0 | 0.00 | 0.34 | 0.08 | 42 | 1008.5 |
| 20260505161636 | 58 | 337 | 3.0 | 3.0 | 0.00 | 0.34 | 0.08 | 41 | 1008.5 |
| 20260505161137 | 57 | 239 | 2.0 | 4.0 | 0.00 | 0.34 | 0.08 | 42 | 1008.5 |
| 20260505160636 | 57 | 299 | 1.0 | 4.0 | 0.00 | 0.34 | 0.08 | 42 | 1008.5 |
| 20260505160137 | 58 | 326 | 4.0 | 4.0 | 0.00 | 0.34 | 0.08 | 41 | 1008.5 |
| 20260505153136 | 55 | 319 | 1.0 | 2.0 | 0.00 | 0.34 | 0.08 | 52 | 1008.3 |
| 20260505152637 | 55 | 265 | 2.0 | 2.0 | 0.00 | 0.34 | 0.08 | 53 | 1008.3 |
| 20260505152137 | 54 | 269 | 3.0 | 2.0 | 0.00 | 0.34 | 0.08 | 55 | 1008.3 |
| 20260505151636 | 54 | 283 | 1.0 | 2.0 | 0.00 | 0.34 | 0.08 | 55 | 1008.5 |
| 20260505151137 | 54 | 334 | 2.0 | 1.0 | 0.00 | 0.34 | 0.08 | 57 | 1008.5 |
| 20260505150636 | 53 | 333 | 1.0 | 1.0 | 0.00 | 0.34 | 0.08 | 60 | 1008.4 |
| 20260505150137 | 53 | 250 | 3.0 | 1.0 | 0.00 | 0.34 | 0.08 | 62 | 1008.4 |
| 20260505140636 | 50 | 0 | 0.0 | 0.0 | 0.01 | 0.34 | 0.08 | 78 | 1009.1 |
| 20260505140136 | 50 | 0 | 0.0 | 1.0 | 0.02 | 0.34 | 0.08 | 78 | 1009.2 |
| 20260505130136 | 48 | 0 | 0.0 | 1.0 | 0.06 | 0.32 | 0.06 | 72 | 1008.5 |
| 20260505124637 | 48 | 333 | 1.0 | 0.0 | 0.04 | 0.30 | 0.04 | 70 | 1008.4 |
| 20260505124138 | 48 | 0 | 0.0 | 1.0 | 0.03 | 0.29 | 0.03 | 70 | 1008.1 |
| 20260505123637 | 48 | 0 | 0.0 | 1.0 | 0.03 | 0.29 | 0.03 | 69 | 1008.4 |
| 20260505123137 | 48 | 1 | 2.0 | 2.0 | 0.03 | 0.29 | 0.03 | 68 | 1008.4 |
| 20260505122637 | 49 | 1 | 1.0 | 1.0 | 0.03 | 0.29 | 0.03 | 67 | 1008.3 |
| 20260505122138 | 49 | 333 | 2.0 | 2.0 | 0.02 | 0.28 | 0.02 | 66 | 1008.6 |
| 20260505121637 | 49 | 289 | 2.0 | 3.0 | 0.02 | 0.28 | 0.02 | 64 | 1008.7 |
| 20260505121137 | 49 | 301 | 4.0 | 3.0 | 0.01 | 0.27 | 0.01 | 63 | 1008.8 |
| 20260505120637 | 50 | 340 | 5.0 | 3.0 | 0.01 | 0.27 | 0.01 | 61 | 1008.5 |
| 20260505120137 | 50 | 309 | 1.0 | 3.0 | 0.00 | 0.26 | 0.00 | 60 | 1008.3 |
| 20260505115637 | 51 | 315 | 2.0 | 3.0 | 0.00 | 0.26 | 0.00 | 58 | 1008.2 |
| 20260505115137 | 51 | 359 | 2.0 | 3.0 | 0.00 | 0.26 | 0.00 | 56 | 1007.8 |
| 20260505114637 | 51 | 311 | 5.0 | 3.0 | 0.00 | 0.26 | 0.00 | 54 | 1007.8 |
| 20260505114137 | 51 | 356 | 1.0 | 5.0 | 0.00 | 0.26 | 0.00 | 52 | 1007.8 |
| 20260505113637 | 51 | 310 | 2.0 | 5.0 | 0.00 | 0.26 | 0.00 | 51 | 1007.5 |
| 20260505113137 | 51 | 358 | 8.0 | 5.0 | 0.00 | 0.26 | 0.00 | 51 | 1007.2 |
| 20260505112637 | 52 | 359 | 2.0 | 6.0 | 0.00 | 0.26 | 0.00 | 52 | 1006.9 |
| 20260505112137 | 52 | 339 | 5.0 | 4.0 | 0.00 | 0.26 | 0.00 | 53 | 1006.5 |
| 20260505111636 | 52 | 316 | 8.0 | 4.0 | 0.00 | 0.26 | 0.00 | 55 | 1006.4 |
| 20260505111137 | 52 | 355 | 1.0 | 5.0 | 0.00 | 0.26 | 0.00 | 56 | 1006.3 |
| 20260505110637 | 52 | 300 | 2.0 | 4.0 | 0.00 | 0.26 | 0.00 | 56 | 1007.0 |
| 20260505110138 | 52 | 314 | 1.0 | 3.0 | 0.00 | 0.26 | 0.00 | 58 | 1006.9 |
| 20260505102137 | 54 | 338 | 4.0 | 3.0 | 0.00 | 0.26 | 0.00 | 57 | 1005.3 |
| 20260505101636 | 54 | 345 | 4.0 | 3.0 | 0.00 | 0.26 | 0.00 | 56 | 1005.5 |
| 20260505101137 | 54 | 347 | 1.0 | 3.0 | 0.00 | 0.26 | 0.00 | 56 | 1005.7 |
| 20260505100637 | 54 | 316 | 5.0 | 3.0 | 0.00 | 0.26 | 0.00 | 55 | 1005.7 |
| 20260505100137 | 55 | 19 | 3.0 | 3.0 | 0.00 | 0.26 | 0.00 | 56 | 1005.9 |
| 20260505095636 | 55 | 360 | 3.0 | 3.0 | 0.00 | 0.26 | 0.00 | 55 | 1005.8 |
| 20260505095137 | 55 | 345 | 4.0 | 4.0 | 0.00 | 0.26 | 0.00 | 54 | 1005.8 |
| 20260505094637 | 55 | 335 | 2.0 | 3.0 | 0.00 | 0.26 | 0.00 | 53 | 1005.9 |
| 20260505094137 | 55 | 359 | 3.0 | 3.0 | 0.00 | 0.26 | 0.00 | 53 | 1005.6 |
| 20260505093637 | 56 | 1 | 3.0 | 3.0 | 0.00 | 0.26 | 0.00 | 53 | 1005.8 |
| 20260505093137 | 56 | 301 | 4.0 | 3.0 | 0.00 | 0.26 | 0.00 | 54 | 1005.8 |
| 20260505092636 | 56 | 328 | 4.0 | 3.0 | 0.00 | 0.26 | 0.00 | 52 | 1005.4 |
| 20260505092138 | 56 | 311 | 1.0 | 3.0 | 0.00 | 0.26 | 0.00 | 51 | 1005.5 |
| 20260505091636 | 57 | 338 | 2.0 | 4.0 | 0.00 | 0.26 | 0.00 | 49 | 1005.4 |
| 20260505091137 | 57 | 359 | 5.0 | 5.0 | 0.00 | 0.26 | 0.00 | 49 | 1005.6 |
| 20260505090637 | 57 | 326 | 3.0 | 5.0 | 0.00 | 0.26 | 0.00 | 50 | 1005.3 |
| 20260505090137 | 57 | 328 | 5.0 | 6.0 | 0.00 | 0.26 | 0.00 | 49 | 1005.1 |
| 20260505085637 | 58 | 312 | 8.0 | 6.0 | 0.00 | 0.26 | 0.00 | 48 | 1004.8 |
| 20260505085137 | 58 | 316 | 4.0 | 5.0 | 0.00 | 0.26 | 0.00 | 46 | 1004.8 |
| 20260505084636 | 58 | 294 | 3.0 | 5.0 | 0.00 | 0.26 | 0.00 | 46 | 1004.7 |
| 20260505084137 | 59 | 324 | 3.0 | 5.0 | 0.00 | 0.26 | 0.00 | 45 | 1004.2 |
| 20260505083636 | 59 | 330 | 6.0 | 3.0 | 0.00 | 0.26 | 0.00 | 45 | 1004.1 |
| 20260505083137 | 59 | 328 | 4.0 | 3.0 | 0.00 | 0.26 | 0.00 | 45 | 1003.6 |
| 20260505082636 | 59 | 304 | 2.0 | 3.0 | 0.00 | 0.26 | 0.00 | 45 | 1003.7 |
| 20260505082137 | 59 | 307 | 1.0 | 3.0 | 0.00 | 0.26 | 0.00 | 45 | 1003.7 |
| 20260505081636 | 60 | 307 | 3.0 | 2.0 | 0.00 | 0.26 | 0.00 | 44 | 1003.6 |
| 20260505081137 | 60 | 321 | 3.0 | 3.0 | 0.00 | 0.26 | 0.00 | 44 | 1003.5 |
| 20260505080637 | 60 | 290 | 1.0 | 4.0 | 0.00 | 0.26 | 0.00 | 43 | 1003.3 |
| 20260505080137 | 60 | 314 | 3.0 | 4.0 | 0.00 | 0.26 | 0.00 | 43 | 1003.1 |
| 20260505075636 | 60 | 321 | 3.0 | 3.0 | 0.00 | 0.26 | 0.00 | 43 | 1003.0 |
| 20260505075137 | 60 | 340 | 4.0 | 3.0 | 0.00 | 0.26 | 0.00 | 43 | 1003.2 |
| 20260505074636 | 60 | 337 | 5.0 | 3.0 | 0.00 | 0.26 | 0.00 | 43 | 1003.0 |
| 20260505074137 | 60 | 297 | 2.0 | 2.0 | 0.00 | 0.26 | 0.00 | 43 | 1003.0 |
| 20260505073636 | 60 | 323 | 3.0 | 2.0 | 0.00 | 0.26 | 0.00 | 43 | 1002.8 |
| 20260505073137 | 61 | 282 | 2.0 | 3.0 | 0.00 | 0.26 | 0.00 | 42 | 1002.6 |
| 20260505072636 | 61 | 303 | 4.0 | 2.0 | 0.00 | 0.26 | 0.00 | 42 | 1002.6 |
| 20260505072137 | 61 | 293 | 3.0 | 2.0 | 0.00 | 0.26 | 0.00 | 42 | 1002.6 |
| 20260505071636 | 61 | 285 | 2.0 | 3.0 | 0.00 | 0.26 | 0.00 | 41 | 1002.5 |
| 20260505071137 | 61 | 280 | 4.0 | 2.0 | 0.00 | 0.26 | 0.00 | 41 | 1002.4 |
| 20260505070637 | 61 | 328 | 4.0 | 3.0 | 0.00 | 0.26 | 0.00 | 40 | 1002.2 |
| 20260505070137 | 61 | 325 | 1.0 | 4.0 | 0.00 | 0.26 | 0.00 | 40 | 1002.4 |
| 20260505065636 | 61 | 255 | 4.0 | 3.0 | 0.00 | 0.26 | 0.00 | 40 | 1002.3 |
| 20260505065137 | 62 | 332 | 9.0 | 4.0 | 0.00 | 0.26 | 0.00 | 40 | 1002.3 |
| 20260505064636 | 62 | 356 | 3.0 | 4.0 | 0.00 | 0.26 | 0.00 | 40 | 1002.3 |
| 20260505064138 | 62 | 309 | 5.0 | 4.0 | 0.00 | 0.26 | 0.00 | 40 | 1002.2 |
| 20260505063637 | 62 | 324 | 2.0 | 4.0 | 0.00 | 0.26 | 0.00 | 40 | 1002.2 |
| 20260505063137 | 62 | 288 | 4.0 | 4.0 | 0.00 | 0.26 | 0.00 | 39 | 1002.2 |
| 20260505062637 | 62 | 308 | 5.0 | 4.0 | 0.00 | 0.26 | 0.00 | 39 | 1002.0 |
| 20260505062137 | 62 | 285 | 1.0 | 4.0 | 0.00 | 0.26 | 0.00 | 40 | 1001.9 |
| 20260505061637 | 62 | 316 | 5.0 | 4.0 | 0.00 | 0.26 | 0.00 | 39 | 1001.8 |
| 20260505061137 | 62 | 23 | 2.0 | 4.0 | 0.00 | 0.26 | 0.00 | 40 | 1001.8 |
| 20260505060636 | 62 | 321 | 5.0 | 4.0 | 0.00 | 0.26 | 0.00 | 40 | 1001.9 |
| 20260505060137 | 62 | 291 | 3.0 | 3.0 | 0.00 | 0.26 | 0.00 | 40 | 1002.0 |
| 20260505055637 | 62 | 252 | 2.0 | 3.0 | 0.00 | 0.26 | 0.00 | 41 | 1002.0 |
| 20260505055137 | 62 | 342 | 4.0 | 3.0 | 0.00 | 0.26 | 0.00 | 42 | 1002.0 |
| 20260505054636 | 62 | 284 | 4.0 | 3.0 | 0.00 | 0.26 | 0.00 | 42 | 1002.1 |
| 20260505054137 | 62 | 337 | 3.0 | 3.0 | 0.00 | 0.26 | 0.00 | 43 | 1002.0 |
| 20260505053636 | 62 | 275 | 3.0 | 3.0 | 0.00 | 0.26 | 0.00 | 45 | 1001.9 |
| 20260505053137 | 62 | 270 | 4.0 | 4.0 | 0.00 | 0.26 | 0.00 | 46 | 1001.8 |
| 20260505052636 | 62 | 316 | 2.0 | 4.0 | 0.00 | 0.26 | 0.00 | 49 | 1001.5 |
| 20260505052137 | 62 | 318 | 7.0 | 3.0 | 0.00 | 0.26 | 0.00 | 53 | 1001.4 |
| 20260505051637 | 62 | 274 | 3.0 | 2.0 | 0.00 | 0.26 | 0.00 | 57 | 1001.3 |
| 20260505051137 | 62 | 310 | 6.0 | 2.0 | 0.00 | 0.26 | 0.00 | 60 | 1001.3 |
| 20260505050636 | 62 | 275 | 1.0 | 3.0 | 0.00 | 0.26 | 0.00 | 62 | 1001.1 |
| 20260505050137 | 62 | 293 | 1.0 | 3.0 | 0.00 | 0.26 | 0.00 | 62 | 1000.9 |
| 20260505041636 | 63 | 236 | 2.0 | 2.0 | 0.00 | 0.26 | 0.26 | 69 | 1000.5 |
| 20260505041137 | 63 | 214 | 2.0 | 3.0 | 0.00 | 0.26 | 0.26 | 69 | 1000.4 |
| 20260505040637 | 63 | 221 | 2.0 | 3.0 | 0.00 | 0.26 | 0.26 | 69 | 1000.6 |
| 20260505040137 | 63 | 199 | 3.0 | 3.0 | 0.00 | 0.26 | 0.26 | 70 | 1000.6 |
| 20260505035637 | 63 | 167 | 2.0 | 3.0 | 0.00 | 0.26 | 0.26 | 70 | 1000.6 |
| 20260505035137 | 63 | 236 | 3.0 | 2.0 | 0.00 | 0.26 | 0.26 | 70 | 1000.6 |
| 20260505034636 | 64 | 195 | 3.0 | 3.0 | 0.00 | 0.26 | 0.26 | 70 | 1000.5 |
| 20260505034137 | 64 | 226 | 1.0 | 4.0 | 0.00 | 0.26 | 0.26 | 70 | 1000.5 |
| 20260505033637 | 64 | 219 | 4.0 | 4.0 | 0.00 | 0.26 | 0.26 | 70 | 1000.5 |
| 20260505033137 | 64 | 209 | 4.0 | 4.0 | 0.00 | 0.26 | 0.26 | 70 | 1000.4 |
| 20260505032636 | 63 | 211 | 3.0 | 4.0 | 0.00 | 0.26 | 0.26 | 70 | 1000.1 |
| 20260505032137 | 63 | 200 | 3.0 | 3.0 | 0.00 | 0.26 | 0.26 | 71 | 1000.0 |
| 20260505031636 | 63 | 201 | 6.0 | 2.0 | 0.00 | 0.26 | 0.26 | 72 | 999.9 |
| 20260505031137 | 63 | 260 | 2.0 | 2.0 | 0.00 | 0.26 | 0.26 | 72 | 1000.1 |
| 20260505030636 | 63 | 192 | 3.0 | 3.0 | 0.00 | 0.26 | 0.26 | 72 | 1000.1 |
| 20260505030137 | 63 | 197 | 3.0 | 3.0 | 0.00 | 0.26 | 0.26 | 72 | 1000.3 |
| 20260505025636 | 63 | 207 | 4.0 | 4.0 | 0.00 | 0.26 | 0.26 | 72 | 1000.3 |
| 20260505025136 | 63 | 243 | 4.0 | 5.0 | 0.00 | 0.26 | 0.26 | 72 | 1000.2 |
| 20260505024636 | 64 | 214 | 8.0 | 4.0 | 0.00 | 0.26 | 0.26 | 72 | 999.8 |
| 20260505024136 | 64 | 231 | 2.0 | 5.0 | 0.00 | 0.26 | 0.26 | 72 | 999.9 |
| 20260505023636 | 64 | 214 | 6.0 | 6.0 | 0.00 | 0.26 | 0.26 | 72 | 999.8 |
| 20260505023137 | 64 | 185 | 4.0 | 5.0 | 0.00 | 0.26 | 0.26 | 72 | 999.6 |
| 20260505022636 | 64 | 187 | 7.0 | 5.0 | 0.00 | 0.26 | 0.26 | 72 | 999.5 |
| 20260505022136 | 64 | 206 | 2.0 | 4.0 | 0.00 | 0.26 | 0.26 | 73 | 999.2 |
| 20260505021636 | 64 | 212 | 4.0 | 4.0 | 0.00 | 0.26 | 0.26 | 73 | 999.0 |
| 20260505021137 | 64 | 205 | 3.0 | 5.0 | 0.00 | 0.26 | 0.26 | 73 | 999.1 |
| 20260505020636 | 64 | 177 | 5.0 | 5.0 | 0.00 | 0.26 | 0.26 | 73 | 999.0 |
| 20260505020136 | 64 | 220 | 8.0 | 6.0 | 0.00 | 0.26 | 0.26 | 74 | 999.2 |
| 20260505015637 | 64 | 206 | 5.0 | 7.0 | 0.00 | 0.26 | 0.26 | 74 | 999.2 |
| 20260505015136 | 64 | 195 | 11.0 | 6.0 | 0.00 | 0.26 | 0.26 | 74 | 999.1 |
| 20260505014636 | 64 | 226 | 9.0 | 5.0 | 0.00 | 0.26 | 0.26 | 75 | 999.4 |
| 20260505014137 | 64 | 225 | 4.0 | 4.0 | 0.00 | 0.26 | 0.26 | 75 | 999.2 |
| 20260505013636 | 64 | 220 | 3.0 | 5.0 | 0.00 | 0.26 | 0.26 | 76 | 998.8 |
| 20260505013137 | 64 | 213 | 5.0 | 6.0 | 0.00 | 0.26 | 0.26 | 77 | 998.7 |
| 20260505012636 | 64 | 211 | 6.0 | 6.0 | 0.00 | 0.26 | 0.26 | 77 | 998.6 |
| 20260505012136 | 63 | 202 | 3.0 | 6.0 | 0.00 | 0.26 | 0.26 | 79 | 998.6 |
| 20260505011637 | 63 | 193 | 6.0 | 5.0 | 0.00 | 0.26 | 0.26 | 80 | 998.6 |
| 20260505011136 | 63 | 191 | 3.0 | 3.0 | 0.00 | 0.26 | 0.26 | 81 | 998.3 |
| 20260505010636 | 63 | 222 | 4.0 | 2.0 | 0.00 | 0.26 | 0.26 | 82 | 998.0 |
| 20260505010136 | 63 | 214 | 1.0 | 2.0 | 0.00 | 0.26 | 0.26 | 82 | 998.0 |
| 20260505005636 | 63 | 210 | 3.0 | 1.0 | 0.00 | 0.26 | 0.26 | 82 | 998.1 |
| 20260505005137 | 63 | 0 | 0.0 | 1.0 | 0.00 | 0.26 | 0.26 | 82 | 998.1 |
| 20260505004636 | 63 | 210 | 1.0 | 2.0 | 0.05 | 0.26 | 0.26 | 82 | 998.1 |